[[{"header":{"parameterUnit":"m.s-1","parameterCategory":1,"la1":30.2991,"la2":30.254,"lo1":-89.0895,"lo2":-89.0444,"dy":0.0017,"dx":0.0017,"nx":28,"ny":28,"refTime":"2025-03-08T09:00:00:Z","depth":0,"parameterNumber":2,"parameterNumberName":"U-component_of_WINDS"},"data":[0,0,0,0,0,0,0,0,0,0,0,0,0,0,0,0,0,0,0,0,0,0,0,0,0,0,0,0,0,0,0,0,0,0,0,0,0,0,0,0,0,0,0,0,0,0,0,0,0,0,0,0,0,0,0,0,0,0,-2.7777,-2.7776,0,-2.7633,-2.7631,-2.7629,-2.7518,-2.7517,-2.7516,-2.7515,-2.7365,-2.7362,-2.7359,0,0,0,0,0,0,0,0,0,0,0,0,0,-2.7956,-2.7953,-2.7777,-2.7775,-2.7774,-2.7633,-2.7631,-2.7629,-2.7518,-2.7517,-2.7516,-2.7515,-2.7366,-2.7363,-2.7359,0,0,0,0,0,0,0,0,0,0,0,0,0,-2.7852,-2.7952,-2.7778,-2.7701,-2.7693,-2.7633,-2.7631,-2.7628,-2.7519,-2.7517,-2.7515,-2.7514,-2.7367,-2.7363,-2.7358,-2.7362,0,0,-2.7345,-2.7343,0,0,0,0,0,0,0,0,-2.7858,-2.7845,-2.7714,-2.7707,-2.7697,-2.7592,-2.7639,-2.7539,-2.7519,-2.7585,-2.7515,-2.7513,-2.7442,-2.7431,-2.7407,-2.7355,-2.7348,-2.7344,-2.7341,-2.734,-2.7338,0,0,0,0,0,0,0,-2.7865,-2.7851,-2.772,-2.7713,-2.7702,-2.7674,-2.7658,-2.7619,-2.7524,-2.7579,-2.7571,-2.7555,-2.7437,-2.7412,-2.7403,-2.7346,-2.7344,-2.734,-2.7338,-2.7336,-2.7291,-2.7293,0,0,0,0,0,0,-2.7884,-2.7858,-2.7724,-2.7716,-2.7775,-2.7672,-2.7654,-2.7627,-2.7524,-2.7507,-2.7557,-2.755,-2.742,-2.7408,-2.7397,-2.7396,-2.734,-2.7335,-2.7333,-2.729,-2.7292,-2.7293,0,0,0,0,0,0,-2.7889,-2.7874,-2.773,-2.7784,-2.7764,-2.7671,-2.7642,-2.7625,-2.76,-2.7507,-2.7489,-2.7549,-2.7419,-2.7404,-2.7372,-2.7389,-2.7333,-2.7329,-2.7288,-2.729,-2.7293,-2.7394,0,0,0,0,0,0,-2.7894,-2.7876,-2.7876,-2.7785,-2.7761,-2.7708,-2.7643,-2.7624,-2.7593,-2.7584,-2.7495,-2.7479,-2.7416,-2.738,-2.7368,-2.7382,-2.7326,-2.7286,-2.7289,-2.7292,-2.7388,-2.7399,-2.7408,0,0,0,0,0,-2.7901,-2.791,-2.7877,-2.7862,-2.776,-2.771,-2.7696,-2.7624,-2.7595,-2.7595,-2.7535,-2.7482,-2.7389,-2.7377,-2.7363,-2.7376,-2.7285,-2.7288,-2.7292,-2.7384,-2.7397,-2.7408,0,0,0,0,0,0,-2.8004,-2.7896,-2.7859,-2.7838,-2.7784,-2.7691,-2.7688,-2.764,-2.7593,-2.7586,-2.7498,-2.7479,-2.7457,-2.7413,-2.7402,-2.7375,-2.733,-2.7331,-2.7405,-2.7417,-2.7427,-2.7439,-2.7322,0,0,0,0,0,-2.8025,-2.7993,-2.79,-2.7891,-2.7866,-2.7782,-2.7757,-2.7707,-2.7647,-2.7623,-2.7561,-2.7505,-2.7463,-2.7437,-2.7393,-2.7381,-2.7361,-2.7383,-2.7393,-2.7402,-2.7404,-2.7396,-2.7405,-2.7305,-2.7305,-2.7305,0,0,-2.8066,-2.8003,-2.7989,-2.791,-2.7862,-2.7832,-2.7764,-2.7733,-2.771,-2.7618,-2.7586,-2.7538,-2.7469,-2.7448,-2.7436,-2.7411,-2.7427,-2.7406,-2.7414,-2.7411,-2.7401,-2.741,-2.7419,-2.7307,-2.7307,-2.7306,0,0,-2.8127,-2.8076,-2.8064,-2.8018,-2.7947,-2.7891,-2.7889,-2.7803,-2.7768,-2.7734,-2.7666,-2.7636,-2.7565,-2.7519,-2.7487,-2.7533,-2.7482,-2.752,-2.7573,-2.7567,-2.7575,-2.7581,-2.7599,-2.7607,-2.7523,-2.7523,-2.7523,0,-2.8188,-2.814,-2.8063,-2.8038,-2.8006,-2.7923,-2.791,-2.7869,-2.7787,-2.7767,-2.774,-2.7651,-2.7598,-2.7567,-2.7578,-2.7554,-2.7549,-2.7531,-2.758,-2.7585,-2.7591,-2.7607,-2.7614,-2.7528,-2.7527,-2.7527,-2.7526,0,-2.8219,-2.8186,-2.8185,-2.811,-2.8077,-2.8059,-2.798,-2.7956,-2.7908,-2.7856,-2.7823,-2.7757,-2.77,-2.7688,-2.7641,-2.765,-2.7637,-2.7596,-2.7549,-2.7607,-2.7621,-2.7626,-2.7536,-2.7534,-2.7532,-2.7531,0,0,-2.8341,-2.8225,-2.8226,-2.8192,-2.8108,-2.8081,-2.8059,-2.8003,-2.7986,-2.7932,-2.7912,-2.7854,-2.7817,-2.778,-2.7727,-2.7721,-2.7764,-2.768,-2.7677,-2.77,-2.7772,-2.7805,-2.7813,-2.7729,-2.773,-2.7731,-2.7778,0,-2.839,-2.8347,-2.8278,-2.8257,-2.8227,-2.8148,-2.8129,-2.8075,-2.8026,-2.7993,-2.7937,-2.7899,-2.7851,-2.7829,-2.7819,-2.7761,-2.7777,-2.7756,-2.7711,-2.771,-2.7733,-2.782,-2.7854,-2.7903,-2.7783,-2.7784,-2.7785,0,-2.8442,-2.8395,-2.8372,-2.8292,-2.8276,-2.8261,-2.8206,-2.8175,-2.8112,-2.8077,-2.8037,-2.798,-2.7952,-2.7909,-2.7871,-2.7858,-2.7835,-2.7804,-2.7804,-2.7798,-2.7752,-2.7819,-2.7916,-2.7925,-2.7792,-2.7791,-2.7791,0,-2.8536,-2.8466,-2.8444,-2.8417,-2.8322,-2.8314,-2.8274,-2.821,-2.8182,-2.8133,-2.8114,-2.8063,-2.8035,-2.7996,-2.7927,-2.7901,-2.7897,-2.7847,-2.7867,-2.7869,-2.7871,-2.7872,-2.7968,-2.7853,-2.7853,-2.7853,-2.7853,0,-2.86,-2.8589,-2.8486,-2.8472,-2.8458,-2.8379,-2.8367,-2.832,-2.8264,-2.824,-2.8167,-2.8146,-2.8055,-2.8023,-2.7968,-2.7946,-2.7933,-2.7904,-2.789,-2.7912,-2.7916,-2.7897,-2.7893,-2.7855,-2.7854,-2.7854,-2.7854,0,-2.8703,-2.8633,-2.8604,-2.8518,-2.8496,-2.849,-2.8416,-2.84,-2.8346,-2.8317,-2.8305,-2.8221,-2.818,-2.8107,-2.8044,-2.8007,-2.7997,-2.7971,-2.8019,-2.801,-2.8035,-2.8035,-2.8124,-2.8132,-2.8011,-2.8012,-2.8013,0,-2.875,-2.874,-2.8653,-2.8633,-2.8596,-2.8563,-2.8535,-2.8456,-2.843,-2.8359,-2.8352,-2.8305,-2.8264,-2.8202,-2.8136,-2.8088,-2.8061,-2.8096,-2.8054,-2.8077,-2.8064,-2.8067,-2.8066,-2.8106,-2.8108,-2.8109,-2.811,0,-2.884,-2.8806,-2.8768,-2.8719,-2.8688,-2.8645,-2.8598,-2.8585,-2.8496,-2.8469,-2.8427,-2.8396,-2.8333,-2.8288,-2.8231,-2.8189,-2.8136,-2.8124,-2.8127,-2.815,-2.8179,-2.8166,-2.8047,-2.8123,-2.8122,-2.8121,-2.812,-2.8119,-2.8917,-2.8906,-2.8844,-2.8805,-2.8762,-2.872,-2.8702,-2.8647,-2.8611,-2.8555,-2.851,-2.8472,-2.841,-2.8328,-2.829,-2.8259,-2.8234,-2.8237,-2.8238,-2.824,-2.825,-2.8183,-2.8247,-2.8247,-2.8247,-2.8246,-2.8246,0,-2.9006,-2.8963,-2.8927,-2.8865,-2.8835,-2.8788,-2.8734,-2.8711,-2.8679,-2.8627,-2.8589,-2.8541,-2.8497,-2.8428,-2.8378,-2.8367,-2.8342,-2.8357,-2.8358,-2.835,-2.8274,-2.8278,-2.8379,-2.8379,-2.8379,-2.8379,-2.8379,-2.8379,-2.9049,-2.9028,-2.8987,-2.8945,-2.89,-2.8864,-2.8838,-2.8799,-2.8757,-2.8708,-2.8672,-2.8627,-2.8568,-2.8514,-2.8472,-2.8453,-2.8439,-2.8463,-2.8436,-2.8367,-2.8355,-2.8343,-2.8346,-2.846,-2.846,-2.8514,-2.8515,-2.8515]},{"header":{"parameterUnit":"m.s-1","parameterCategory":1,"la1":30.2991,"la2":30.254,"lo1":-89.0895,"lo2":-89.0444,"dy":0.0017,"dx":0.0017,"nx":28,"ny":28,"refTime":"2025-03-08T09:00:00:Z","depth":0,"parameterNumber":3,"parameterNumberName":"V-component_of_WINDS"},"data":[0,0,0,0,0,0,0,0,0,0,0,0,0,0,0,0,0,0,0,0,0,0,0,0,0,0,0,0,0,0,0,0,0,0,0,0,0,0,0,0,0,0,0,0,0,0,0,0,0,0,0,0,0,0,0,0,0,0,-1.963,-1.9631,0,-1.971,-1.9711,-1.9712,-1.9721,-1.9721,-1.972,-1.9719,-1.9801,-1.9804,-1.9807,0,0,0,0,0,0,0,0,0,0,0,0,0,-1.9484,-1.9487,-1.963,-1.9631,-1.9632,-1.971,-1.9711,-1.9712,-1.9722,-1.9721,-1.972,-1.9719,-1.98,-1.9804,-1.9807,0,0,0,0,0,0,0,0,0,0,0,0,0,-1.9554,-1.9488,-1.963,-1.9646,-1.9648,-1.971,-1.9711,-1.9713,-1.9722,-1.9721,-1.9719,-1.9718,-1.9799,-1.9803,-1.9808,-1.9858,0,0,-1.9821,-1.9823,0,0,0,0,0,0,0,0,-1.955,-1.956,-1.9643,-1.9645,-1.9648,-1.9705,-1.969,-1.9762,-1.9722,-1.9694,-1.9719,-1.9718,-1.977,-1.9777,-1.9794,-1.9862,-1.9866,-1.9821,-1.9824,-1.9826,-1.9827,0,0,0,0,0,0,0,-1.9545,-1.9556,-1.9662,-1.9644,-1.9647,-1.9649,-1.9658,-1.9703,-1.9738,-1.9696,-1.9697,-1.9707,-1.9771,-1.979,-1.9796,-1.9867,-1.9821,-1.9825,-1.9828,-1.9829,-1.998,-1.9982,0,0,0,0,0,0,-1.9538,-1.9552,-1.9659,-1.9664,-1.9595,-1.9653,-1.9662,-1.9688,-1.9737,-1.9744,-1.9707,-1.9707,-1.9783,-1.9791,-1.9799,-1.9862,-1.9826,-1.983,-1.9832,-1.9979,-1.9981,-1.9982,0,0,0,0,0,0,-1.9534,-1.9547,-1.9656,-1.9608,-1.9623,-1.9657,-1.9685,-1.969,-1.9709,-1.9746,-1.9752,-1.9721,-1.9783,-1.9793,-1.9844,-1.9865,-1.9832,-1.9836,-1.9977,-1.9979,-1.9981,-1.9989,0,0,0,0,0,0,-1.953,-1.9546,-1.9566,-1.9609,-1.9625,-1.97,-1.9686,-1.9692,-1.9716,-1.9716,-1.976,-1.9766,-1.9782,-1.9837,-1.9848,-1.9871,-1.9839,-1.9976,-1.9978,-1.9981,-1.9987,-1.9991,-1.9994,0,0,0,0,0,-1.9525,-1.9565,-1.9567,-1.958,-1.9651,-1.9701,-1.971,-1.9729,-1.9718,-1.9738,-1.9762,-1.9764,-1.9861,-1.9842,-1.9854,-1.9879,-1.9974,-1.9977,-1.998,-1.9985,-1.999,-1.9994,0,0,0,0,0,0,-1.9524,-1.9571,-1.9574,-1.9629,-1.9661,-1.9702,-1.9729,-1.9733,-1.9769,-1.9767,-1.9788,-1.9798,-1.9848,-1.9868,-1.9846,-1.9931,-1.9916,-1.9922,-1.9916,-1.9921,-1.9924,-1.9919,-1.9843,0,0,0,0,0,-1.953,-1.9567,-1.9606,-1.9651,-1.9666,-1.9695,-1.9717,-1.9728,-1.9762,-1.9776,-1.9803,-1.9836,-1.9873,-1.9898,-1.9935,-1.9989,-1.9999,-2.0012,-2.0016,-2.0019,-2.0024,-2.0054,-2.0061,-1.9992,-1.9992,-1.9992,0,0,-1.9543,-1.9573,-1.9596,-1.9651,-1.9677,-1.9715,-1.9706,-1.9746,-1.9774,-1.9782,-1.9832,-1.9852,-1.989,-1.9943,-1.9968,-1.9962,-2.0045,-2.0023,-2.0025,-2.0028,-2.0058,-2.0065,-2.007,-1.9994,-1.9994,-1.9994,0,0,-1.9587,-1.9613,-1.9654,-1.968,-1.9719,-1.9737,-1.9747,-1.9788,-1.9802,-1.9852,-1.9858,-1.9891,-1.9956,-1.9983,-2.0005,-2.0057,-2.0061,-2.0068,-2.0088,-2.0118,-2.0123,-2.0128,-2.0147,-2.0154,-2.0073,-2.0073,-2.0073,0,-1.9599,-1.9656,-1.9674,-1.9714,-1.9738,-1.9746,-1.9787,-1.9811,-1.9861,-1.9877,-1.9869,-1.995,-1.9976,-2.0035,-2.0048,-2.0065,-2.0077,-2.0064,-2.0121,-2.0126,-2.0131,-2.015,-2.0157,-2.0073,-2.0073,-2.0073,-2.0073,0,-1.9669,-1.9708,-1.9736,-1.9783,-1.981,-1.985,-1.9874,-1.9899,-1.9907,-1.9926,-1.9977,-2.0008,-2.0051,-2.0065,-2.0074,-2.0126,-2.0121,-2.0117,-2.0103,-2.0138,-2.0156,-2.0163,-2.0074,-2.0074,-2.0074,-2.0074,0,0,-1.9716,-1.9772,-1.9782,-1.9803,-1.9847,-1.9877,-1.9917,-1.9959,-1.9981,-2.0014,-2.0048,-2.0102,-2.0098,-2.0123,-2.0134,-2.016,-2.02,-2.0152,-2.0154,-2.0161,-2.0259,-2.0263,-2.0271,-2.0201,-2.0203,-2.0204,-2.0256,0,-1.9766,-1.9838,-1.9854,-1.9917,-1.9953,-1.996,-1.9995,-2.0025,-2.0043,-2.0077,-2.0096,-2.0135,-2.0126,-2.0141,-2.0167,-2.0189,-2.022,-2.0185,-2.0234,-2.0236,-2.0226,-2.028,-2.0285,-2.0333,-2.0263,-2.0264,-2.0265,0,-1.9834,-1.9869,-1.9934,-1.9972,-1.9988,-2.002,-2.0059,-2.0091,-2.0124,-2.0136,-2.0163,-2.0171,-2.0213,-2.0196,-2.0253,-2.023,-2.025,-2.0264,-2.0266,-2.0273,-2.0254,-2.029,-2.0349,-2.0356,-2.0276,-2.0275,-2.0275,0,-1.9863,-1.9926,-1.9974,-1.9992,-2.0037,-2.0059,-2.0078,-2.0111,-2.0135,-2.0169,-2.0185,-2.0223,-2.0245,-2.0274,-2.0292,-2.0278,-2.0348,-2.0333,-2.036,-2.0359,-2.0376,-2.0375,-2.044,-2.0386,-2.0386,-2.0386,-2.0386,0,-1.9918,-1.9959,-1.9988,-2.0017,-2.0062,-2.008,-2.0124,-2.0143,-2.0172,-2.0205,-2.0213,-2.0243,-2.0265,-2.0299,-2.0313,-2.0359,-2.0368,-2.0379,-2.0382,-2.0379,-2.0378,-2.0394,-2.0392,-2.0388,-2.0387,-2.0387,-2.0387,0,-1.996,-1.9981,-2.0033,-2.0071,-2.0082,-2.0113,-2.0146,-2.0174,-2.0192,-2.0233,-2.0244,-2.0272,-2.0312,-2.0332,-2.0382,-2.0391,-2.0443,-2.0444,-2.0432,-2.0434,-2.046,-2.0458,-2.054,-2.0552,-2.0488,-2.0489,-2.0489,0,-1.9995,-2.0026,-2.0067,-2.009,-2.011,-2.0146,-2.0171,-2.0188,-2.0213,-2.0253,-2.0277,-2.0317,-2.0351,-2.0414,-2.0438,-2.0476,-2.0479,-2.0505,-2.0485,-2.0481,-2.0481,-2.048,-2.0483,-2.0509,-2.051,-2.051,-2.0511,0,-2.0054,-2.0063,-2.0098,-2.0136,-2.0165,-2.0196,-2.0226,-2.0244,-2.0267,-2.0294,-2.0335,-2.0361,-2.0411,-2.0452,-2.0491,-2.0511,-2.0515,-2.0516,-2.0525,-2.0523,-2.0515,-2.0521,-2.0444,-2.0515,-2.0515,-2.0514,-2.0514,-2.0514,-2.0095,-2.0123,-2.0156,-2.0194,-2.0219,-2.0247,-2.0276,-2.0296,-2.0331,-2.0373,-2.0381,-2.0425,-2.0456,-2.051,-2.0531,-2.0565,-2.0559,-2.0571,-2.0575,-2.0578,-2.058,-2.0508,-2.0572,-2.0572,-2.0572,-2.0571,-2.0571,0,-2.0156,-2.0177,-2.0212,-2.0255,-2.0285,-2.0285,-2.0318,-2.0343,-2.0381,-2.0411,-2.0443,-2.049,-2.0528,-2.0554,-2.0593,-2.0615,-2.0618,-2.0625,-2.0625,-2.063,-2.0582,-2.0571,-2.0622,-2.0622,-2.0622,-2.0622,-2.0622,-2.0622,-2.0192,-2.0239,-2.0251,-2.0311,-2.0332,-2.0374,-2.0393,-2.0419,-2.0443,-2.0495,-2.0526,-2.0543,-2.0571,-2.0612,-2.0647,-2.0654,-2.0668,-2.0676,-2.0683,-2.0638,-2.0633,-2.0628,-2.0618,-2.0678,-2.0678,-2.0728,-2.0728,-2.0729]}]]